Location: Millers Ferry
(32.0990°N, 87.3680°W)
Time: 12:44:02
(UTC-05:00)

CSL-04 Rocket - Visible Passes

Search period start: 03 June 2015 00:00
Search period end: 13 June 2015 00:00
Orbit: 806 x 861 km, 98.9° (Epoch: 02 June)

Date Brightness Start Highest point End Pass type
(mag) Time Alt. Az. Time Alt. Az. Time Alt. Az.
03 Jun 4.5 05:11:03 10° NNE 05:16:19 55° E 05:21:41 10° S visible
04 Jun 5.2 04:54:29 10° NNE 04:59:26 37° E 05:04:29 10° SSE visible
05 Jun 5.8 04:38:08 10° NE 04:42:30 25° E 04:47:01 10° SSE visible
06 Jun 6.2 04:22:09 10° NE 04:25:29 17° E 04:29:07 10° SE visible
07 Jun 6.5 04:07:12 10° ENE 04:08:26 11° E 04:10:06 10° ESE visible
09 Jun 4.5 05:10:22 10° NNE 05:15:41 54° E 05:21:03 10° S visible
10 Jun 5.2 04:53:50 10° NNE 04:58:47 36° E 05:03:51 10° SSE visible
11 Jun 5.8 04:37:30 10° NE 04:41:51 25° E 04:46:22 10° SSE visible
12 Jun 6.2 04:21:32 10° NE 04:24:50 17° E 04:28:26 10° SE visible
